sat.trackr.live / text

‹ back to catalog

STARLINK-36384

NORAD 67597 · 2026-018J

PAYLOAD ACTIVE UNKNOWN

§ Identity

Operator
Country
US
Launch date
2026-01-29
Launch site
AFWTR
Launch vehicle
Mass (kg)
RCS (m²)

Purposes: comms

External: N2YO · Heavens-Above · Gunter

§ Orbital elements

Epoch: 2026-09-19T03:07:06.231072Z

Period
93.91 min
Inclination
97.2847°
Eccentricity
0.0001445
Mean motion
15.33450039 rev/d
Perigee alt
464.5 km
Apogee alt
466.5 km
Semi-major
6,843.7 km
B*
4.4527e-4
RAAN
325.6571°
Arg perigee
102.1837°
Mean anomaly
257.9567°
Rev number
3,698

§ Raw data

STARLINK-363841 67597U 26018J   26262.12993323  .00014330  00000+0  44527-3 0  99962 67597  97.2847 325.6571 0001445 102.1837 257.9567 15.33450039 36988

JSON: /api/v1/satellites/67597 · /tle

For live sub-satellite position, see the globe view (requires WebGL).

§ Visibility from observer

Set your observer location to see the next 7 days of passes ≥ 10°. The values pass through the URL so the page stays shareable.

No JS? Fill the form by hand. The geolocation button needs JavaScript.